Lid_Strength_Index
-0 -1 -1 -1 -1 -1 -1 -1 -2 -1 -1 -1 -0 1 1 1 0 3 5 1 -0 -1 -1 1 1 2 2 4 3 3 10 12 10 9 8 5 6 4 4 5 5 4 3 3 2
-1 -1 -1 -1 -1 -1 -2 -2 -2 -1 -1 -1 -1 0 0 1 3 5 2 -2 -2 -2 1 2 4 3 5 5 5 7 10 10 6 6 7 6 5 5 5 5 5 4 3 2 2
-1 -1 -1 -1 -2 -2 -2 -2 -2 -1 -1 -1 -1 -1 0 1 5 5 -0 -2 -2 -2 0 1 2 4 6 5 6 6 9 7 6 5 5 6 5 4 5 6 5 5 3 3 3
-1 -1 -1 -2 -2 -2 -2 -1 -1 -1 -1 -1 -1 -1 -0 1 10 2 -2 -2 -2 -1 1 3 3 6 7 8 5 8 6 6 5 5 6 6 5 5 5 5 4 3 3 3 3
-1 -2 -2 -2 -2 -2 -1 -1 -1 -1 -1 -1 -1 -1 0 4 5 -0 -1 -1 -0 0 3 4 5 6 8 7 6 8 6 6 5 6 5 5 5 5 5 4 3 3 3 3 3
-1 -1 -2 -1 -1 -1 -1 -1 -1 -1 -1 -1 -1 -1 2 7 0 -1 0 0 1 2 3 3 4 4 6 7 7 6 6 6 6 6 6 6 6 5 5 3 3 4 4 3 3
-1 -1 -2 -1 -1 -1 -1 -1 -1 -1 -1 -1 -1 -0 3 4 -0 -1 -0 1 1 1 3 2 2 4 5 8 5 6 8 7 7 6 7 5 8 7 4 4 4 4 4 4 4
-1 -1 -2 -1 -1 -1 -1 -1 -1 -1 -1 -1 -1 1 5 0 -0 0 0 1 0 1 1 1 1 4 5 5 7 9 8 12 8 7 6 7 10 6 4 4 5 5 4 4 4
-1 -1 -1 -1 -1 -1 -1 -1 -1 -1 -1 -1 1 2 6 -1 3 1 0 3 2 2 1 1 3 5 6 9 11 9 12 11 10 7 7 8 9 6 5 6 6 5 5 5 4
-1 -1 -1 -1 -1 -1 -1 -1 -1 -1 -0 -0 1 5 3 5 2 2 0 2 4 4 5 6 7 8 8 9 14 12 12 10 10 9 8 9 9 7 6 6 6 6 5 5 5
-1 -0 -1 -1 -1 -1 -1 0 3 4 3 5 5 6 4 2 1 3 2 3 4 6 10 8 11 12 10 8 8 9 10 10 9 8 9 10 9 8 7 6 6 6 6 6 5
-0 0 0 -0 1 1 0 3 4 3 7 4 4 4 3 3 7 4 2 7 7 11 7 11 13 8 7 7 8 9 10 11 9 8 9 10 10 8 8 7 6 6 6 6 5
0 0 0 1 2 2 4 4 1 2 8 6 5 5 5 4 7 7 4 6 8 10 10 12 11 7 8 9 10 9 10 10 11 9 8 10 12 10 8 8 7 7 7 7 7
0 1 1 1 3 3 5 3 2 3 12 11 8 6 5 5 8 4 3 6 9 11 9 11 8 9 10 10 9 11 8 9 11 11 13 9 14 10 10 10 9 8 7 6 6
0 1 2 1 3 4 4 2 2 4 19 10 9 2 4 7 7 7 3 6 10 11 10 13 11 10 11 10 8 11 8 9 10 12 12 12 13 10 9 11 10 9 7 6 6
1 1 1 2 2 3 2 2 4 13 19 13 8 9 9 7 8 6 7 5 7 10 9 11 8 9 9 8 8 7 9 10 10 12 17 13 12 12 11 10 9 8 7 6 6
1 1 2 2 4 2 2 5 14 17 10 13 11 9 10 11 10 9 10 11 13 15 15 12 12 9 8 10 8 9 11 17 18 19 18 13 13 11 9 8 8 8 7 6 5
1 1 2 2 1 2 4 9 17 13 12 9 9 10 13 11 11 10 11 13 10 11 14 16 17 12 10 10 12 11 11 16 20 19 16 14 15 12 9 8 8 7 7 6 5
2 2 3 1 1 3 6 14 15 13 9 10 9 12 12 10 11 11 11 12 10 9 15 15 16 11 10 10 9 13 15 11 14 14 15 13 12 10 9 9 9 8 7 6 6
3 3 3 2 2 4 8 13 12 8 8 8 12 10 13 11 11 11 11 9 10 9 9 10 16 11 11 10 10 11 9 15 14 20 18 15 14 13 12 11 9 8 8 6 6
4 5 2 2 2 5 12 12 9 7 7 9 10 11 10 11 10 11 11 9 8 9 8 9 11 13 11 12 13 13 14 12 12 13 17 16 15 10 10 9 9 8 7 7 6
4 9 2 2 7 7 10 9 7 8 6 8 8 9 10 10 11 11 11 9 7 8 10 9 11 15 13 11 10 10 11 11 14 16 14 14 14 9 8 8 8 8 7 6 5
6 5 2 2 10 9 8 8 7 8 8 8 9 8 8 10 12 10 9 8 7 8 9 9 12 16 15 12 11 12 11 11 12 12 15 16 14 9 8 8 7 7 6 5 5
6 9 5 4 5 8 9 9 9 7 7 7 8 8 9 10 9 10 10 8 8 8 8 7 11 13 15 15 11 13 11 10 12 15 14 13 12 10 9 8 6 6 6 5 6
6 8 8 10 8 8 8 9 10 10 7 7 8 8 9 11 10 11 9 9 8 7 7 8 14 12 11 11 11 12 12 11 13 12 14 11 12 10 8 7 6 7 6 6 7
10 10 7 8 8 8 9 9 10 9 9 9 10 8 8 10 10 10 9 9 9 8 9 8 13 12 14 11 11 13 11 11 11 11 11 11 11 8 7 6 8 7 7 7 8
8 8 9 8 8 9 8 9 9 8 7 7 8 8 9 8 7 7 6 6 7 8 9 10 12 14 15 12 12 15 12 11 10 10 10 12 10 8 8 8 8 8 7 7 8